Home   Weather   Kuala Lumpur   Past weeks

Flag for Malaysia Past Weather in Kuala Lumpur, Malaysia — Yesterday and Last 2 Weeks

Now
77 °F

Partly cloudy.


Feels Like: 78 °F
Forecast: 74 / 82 °F
Wind: 3 mph from Northeast

Location: Kuala Lumpur / Subang

Current Time: Dec 11, 2016 at 6:23:43 am

Latest Report: Dec 11, 2016 at 6:00 am


Visibility: N/A

Pressure: 29.77 "Hg

Humidity: 94%

Dew Point: 75 °F

Location of Kuala LumpurLocation

Past Weather in Kuala Lumpur — Graph

°F

Kuala Lumpur Temperature Yesterday

Maximum temperature yesterday: 86 °F (at 11:30 am)
Minimum temperature yesterday: 75 °F (at 2:00 am)
Average temperature yesterday: 80 °F

High & Low Weather Summary for the Past Weeks

 TemperatureHumidityPressure
High93 °F (Dec 6, 2:00 pm)100% (Nov 27, 4:00 am)29.92 "Hg (Nov 27, 4:00 am)
Low73 °F (Nov 29, 1:30 am)52% (Dec 5, 1:30 pm)29.65 "Hg (Dec 8, 6:00 pm)
Average81 °F83%29.79 "Hg
* Reported Nov 26 5:00 am — Dec 11 5:00 am, Kuala Lumpur, Weather by CustomWeather, © 2016

Note: Actual official high and low records may vary slightly from our data, if they occured in-between our weather recording intervals... More about our weather records

Advertising

Kuala Lumpur Weather History for the Previous 24 Hours

Scroll right to see more
 ConditionsComfort  
Time TempWeatherWind HumidityBarometerVisibility
5:00 am
Sun, Dec 11
77 °FPartly cloudy.1 mph89%29.77 "HgN/A
4:30 am77 °FPartly cloudy.1 mph89%29.77 "HgN/A
4:00 am75 °FPartly cloudy.No wind94%29.80 "HgN/A
3:30 am75 °FPartly cloudy.No wind94%29.80 "HgN/A
3:00 am75 °FPartly cloudy.3 mph94%29.80 "HgN/A
2:30 am75 °FPartly cloudy.2 mph94%29.80 "HgN/A
2:00 am77 °FPartly cloudy.3 mph94%29.83 "HgN/A
1:30 am77 °FPartly cloudy.No wind94%29.83 "HgN/A
1:00 am77 °FPartly cloudy.No wind89%29.86 "HgN/A
12:30 am77 °FPartly cloudy.1 mph89%29.86 "HgN/A
12:00 am77 °FPartly cloudy.5 mph89%29.83 "HgN/A
11:30 pm
Sat, Dec 10
77 °FPartly cloudy.2 mph89%29.86 "HgN/A
11:00 pm77 °FPartly cloudy.2 mph89%29.86 "HgN/A
10:30 pm77 °FPartly cloudy.5 mph94%29.83 "HgN/A
10:00 pm79 °FPartly cloudy.5 mph94%29.83 "HgN/A
9:30 pm79 °FLight rain. Partly cloudy.6 mph94%29.80 "Hg6 mi
9:00 pm79 °FLight rain. Partly cloudy.1 mph94%29.80 "Hg6 mi
8:30 pm81 °FLight rain. Partly cloudy.3 mph89%29.80 "Hg6 mi
8:00 pm81 °FLight rain. Partly cloudy.3 mph89%29.77 "Hg5 mi
7:30 pm81 °FLight rain. Partly cloudy.2 mph89%29.77 "Hg6 mi
7:00 pm82 °FLight rain. Broken clouds.No wind84%29.74 "Hg6 mi
6:30 pm82 °FLight rain. Broken clouds.No wind84%29.74 "Hg6 mi
6:00 pm82 °FBroken clouds.No wind84%29.71 "HgN/A
5:30 pm82 °FBroken clouds.1 mph84%29.71 "HgN/A
5:00 pm82 °FScattered showers. Broken clouds.3 mph84%29.71 "Hg5 mi
4:30 pm82 °FScattered showers. Broken clouds.6 mph84%29.71 "Hg5 mi
4:00 pm84 °FBroken clouds.2 mph79%29.71 "HgN/A
3:30 pm86 °FThunderstorms. Broken clouds.2 mph70%29.71 "HgN/A
3:00 pm86 °FThunderstorms. Broken clouds.3 mph75%29.74 "HgN/A
2:30 pm84 °FThunderstorms. Broken clouds.6 mph74%29.74 "HgN/A
2:00 pm84 °FBroken clouds.7 mph74%29.74 "HgN/A
1:30 pm84 °FBroken clouds.5 mph79%29.77 "HgN/A
1:00 pm86 °FBroken clouds.5 mph70%29.77 "HgN/A
12:30 pm86 °FBroken clouds.5 mph70%29.80 "HgN/A
12:00 pm86 °FBroken clouds.5 mph70%29.77 "HgN/A
11:30 am86 °FBroken clouds.5 mph70%29.80 "HgN/A
11:00 am84 °FBroken clouds.1 mph74%29.80 "HgN/A
10:30 am84 °FBroken clouds.1 mph74%29.80 "HgN/A
10:00 am82 °FBroken clouds.1 mph79%29.77 "HgN/A
9:30 am81 °FBroken clouds.5 mph79%29.80 "HgN/A
9:00 am81 °FBroken clouds.2 mph79%29.77 "HgN/A
8:30 am79 °FBroken clouds.5 mph84%29.77 "HgN/A
8:00 am77 °FBroken clouds.2 mph89%29.77 "HgN/A
7:00 am75 °FPartly cloudy.3 mph89%29.77 "HgN/A
6:30 am75 °FPartly cloudy.3 mph89%29.77 "HgN/A
6:00 am75 °FPartly cloudy.3 mph89%29.74 "HgN/A
Weather by CustomWeather, © 2016

See weather overviewHow to use our weather pages